Index of /20260508/WXO-DD/model_gdps/15km/00/072
Name Last modified Size Description
Parent Directory -
20260508T00Z_MSC_GDPS_AbsoluteVorticity_IsbL-0200_LatLon0.15_PT072H.grib2 2026-05-08 04:13 1.2M
20260508T00Z_MSC_GDPS_AbsoluteVorticity_IsbL-0250_LatLon0.15_PT072H.grib2 2026-05-08 04:13 1.3M
20260508T00Z_MSC_GDPS_AbsoluteVorticity_IsbL-0500_LatLon0.15_PT072H.grib2 2026-05-08 04:13 1.5M
20260508T00Z_MSC_GDPS_AbsoluteVorticity_IsbL-0700_LatLon0.15_PT072H.grib2 2026-05-08 04:13 1.3M
20260508T00Z_MSC_GDPS_AbsoluteVorticity_IsbL-0850_LatLon0.15_PT072H.grib2 2026-05-08 04:13 1.6M
20260508T00Z_MSC_GDPS_AirTemp-Max_AGL-2m_LatLon0.15_PT072H.grib2 2026-05-08 04:13 737K
20260508T00Z_MSC_GDPS_AirTemp-Min_AGL-2m_LatLon0.15_PT072H.grib2 2026-05-08 04:13 788K
20260508T00Z_MSC_GDPS_AirTemp_AGL-120m_LatLon0.15_PT072H.grib2 2026-05-08 04:13 906K
20260508T00Z_MSC_GDPS_AirTemp_AGL-2m_LatLon0.15_PT072H.grib2 2026-05-08 04:13 1.0M
20260508T00Z_MSC_GDPS_AirTemp_AGL-40m_LatLon0.15_PT072H.grib2 2026-05-08 04:13 810K
20260508T00Z_MSC_GDPS_AirTemp_AGL-80m_LatLon0.15_PT072H.grib2 2026-05-08 04:13 915K
20260508T00Z_MSC_GDPS_AirTemp_IsbL-0001_LatLon0.15_PT072H.grib2 2026-05-08 04:13 663K
20260508T00Z_MSC_GDPS_AirTemp_IsbL-0005_LatLon0.15_PT072H.grib2 2026-05-08 04:13 699K
20260508T00Z_MSC_GDPS_AirTemp_IsbL-0010_LatLon0.15_PT072H.grib2 2026-05-08 04:13 704K
20260508T00Z_MSC_GDPS_AirTemp_IsbL-0020_LatLon0.15_PT072H.grib2 2026-05-08 04:13 720K
20260508T00Z_MSC_GDPS_AirTemp_IsbL-0030_LatLon0.15_PT072H.grib2 2026-05-08 04:13 846K
20260508T00Z_MSC_GDPS_AirTemp_IsbL-0050_LatLon0.15_PT072H.grib2 2026-05-08 04:13 891K
20260508T00Z_MSC_GDPS_AirTemp_IsbL-0100_LatLon0.15_PT072H.grib2 2026-05-08 04:13 968K
20260508T00Z_MSC_GDPS_AirTemp_IsbL-0150_LatLon0.15_PT072H.grib2 2026-05-08 04:13 969K
20260508T00Z_MSC_GDPS_AirTemp_IsbL-0175_LatLon0.15_PT072H.grib2 2026-05-08 04:13 961K
20260508T00Z_MSC_GDPS_AirTemp_IsbL-0200_LatLon0.15_PT072H.grib2 2026-05-08 04:13 969K
20260508T00Z_MSC_GDPS_AirTemp_IsbL-0225_LatLon0.15_PT072H.grib2 2026-05-08 04:13 968K
20260508T00Z_MSC_GDPS_AirTemp_IsbL-0250_LatLon0.15_PT072H.grib2 2026-05-08 04:13 1.0M
20260508T00Z_MSC_GDPS_AirTemp_IsbL-0275_LatLon0.15_PT072H.grib2 2026-05-08 04:13 1.0M
20260508T00Z_MSC_GDPS_AirTemp_IsbL-0300_LatLon0.15_PT072H.grib2 2026-05-08 04:13 1.0M
20260508T00Z_MSC_GDPS_AirTemp_IsbL-0350_LatLon0.15_PT072H.grib2 2026-05-08 04:13 933K
20260508T00Z_MSC_GDPS_AirTemp_IsbL-0400_LatLon0.15_PT072H.grib2 2026-05-08 04:13 946K
20260508T00Z_MSC_GDPS_AirTemp_IsbL-0450_LatLon0.15_PT072H.grib2 2026-05-08 04:13 968K
20260508T00Z_MSC_GDPS_AirTemp_IsbL-0500_LatLon0.15_PT072H.grib2 2026-05-08 04:13 1.0M
20260508T00Z_MSC_GDPS_AirTemp_IsbL-0550_LatLon0.15_PT072H.grib2 2026-05-08 04:13 1.0M
20260508T00Z_MSC_GDPS_AirTemp_IsbL-0600_LatLon0.15_PT072H.grib2 2026-05-08 04:13 898K
20260508T00Z_MSC_GDPS_AirTemp_IsbL-0650_LatLon0.15_PT072H.grib2 2026-05-08 04:13 919K
20260508T00Z_MSC_GDPS_AirTemp_IsbL-0700_LatLon0.15_PT072H.grib2 2026-05-08 04:13 950K
20260508T00Z_MSC_GDPS_AirTemp_IsbL-0750_LatLon0.15_PT072H.grib2 2026-05-08 04:13 1.0M
20260508T00Z_MSC_GDPS_AirTemp_IsbL-0800_LatLon0.15_PT072H.grib2 2026-05-08 04:13 1.1M
20260508T00Z_MSC_GDPS_AirTemp_IsbL-0850_LatLon0.15_PT072H.grib2 2026-05-08 04:13 1.1M
20260508T00Z_MSC_GDPS_AirTemp_IsbL-0875_LatLon0.15_PT072H.grib2 2026-05-08 04:13 1.1M
20260508T00Z_MSC_GDPS_AirTemp_IsbL-0900_LatLon0.15_PT072H.grib2 2026-05-08 04:13 1.1M
20260508T00Z_MSC_GDPS_AirTemp_IsbL-0925_LatLon0.15_PT072H.grib2 2026-05-08 04:13 1.1M
20260508T00Z_MSC_GDPS_AirTemp_IsbL-0950_LatLon0.15_PT072H.grib2 2026-05-08 04:13 1.1M
20260508T00Z_MSC_GDPS_AirTemp_IsbL-0970_LatLon0.15_PT072H.grib2 2026-05-08 04:13 1.1M
20260508T00Z_MSC_GDPS_AirTemp_IsbL-0985_LatLon0.15_PT072H.grib2 2026-05-08 04:13 1.1M
20260508T00Z_MSC_GDPS_AirTemp_IsbL-1000_LatLon0.15_PT072H.grib2 2026-05-08 04:13 1.1M
20260508T00Z_MSC_GDPS_AirTemp_IsbL-1015_LatLon0.15_PT072H.grib2 2026-05-08 04:13 1.1M
20260508T00Z_MSC_GDPS_Albedo_Sfc_LatLon0.15_PT072H.grib2 2026-05-08 04:13 245K
20260508T00Z_MSC_GDPS_CAPE_Sfc_LatLon0.15_PT072H.grib2 2026-05-08 04:13 3.9M
20260508T00Z_MSC_GDPS_CIN_Sfc_LatLon0.15_PT072H.grib2 2026-05-08 04:13 2.8M
20260508T00Z_MSC_GDPS_CloudWater_EAtm_LatLon0.15_PT072H.grib2 2026-05-08 04:13 539K
20260508T00Z_MSC_GDPS_ConvectivePrecip-Accum_Sfc_LatLon0.15_PT072H.grib2 2026-05-08 04:13 3.1M
20260508T00Z_MSC_GDPS_DewPointDepression_AGL-2m_LatLon0.15_PT072H.grib2 2026-05-08 04:13 757K
20260508T00Z_MSC_GDPS_DewPointDepression_IsbL-0010_LatLon0.15_PT072H.grib2 2026-05-08 04:13 94K
20260508T00Z_MSC_GDPS_DewPointDepression_IsbL-0020_LatLon0.15_PT072H.grib2 2026-05-08 04:13 91K
20260508T00Z_MSC_GDPS_DewPointDepression_IsbL-0030_LatLon0.15_PT072H.grib2 2026-05-08 04:13 107K
20260508T00Z_MSC_GDPS_DewPointDepression_IsbL-0050_LatLon0.15_PT072H.grib2 2026-05-08 04:13 387K
20260508T00Z_MSC_GDPS_DewPointDepression_IsbL-0100_LatLon0.15_PT072H.grib2 2026-05-08 04:13 398K
20260508T00Z_MSC_GDPS_DewPointDepression_IsbL-0150_LatLon0.15_PT072H.grib2 2026-05-08 04:13 507K
20260508T00Z_MSC_GDPS_DewPointDepression_IsbL-0175_LatLon0.15_PT072H.grib2 2026-05-08 04:13 596K
20260508T00Z_MSC_GDPS_DewPointDepression_IsbL-0200_LatLon0.15_PT072H.grib2 2026-05-08 04:13 693K
20260508T00Z_MSC_GDPS_DewPointDepression_IsbL-0225_LatLon0.15_PT072H.grib2 2026-05-08 04:13 787K
20260508T00Z_MSC_GDPS_DewPointDepression_IsbL-0250_LatLon0.15_PT072H.grib2 2026-05-08 04:13 882K
20260508T00Z_MSC_GDPS_DewPointDepression_IsbL-0275_LatLon0.15_PT072H.grib2 2026-05-08 04:13 913K
20260508T00Z_MSC_GDPS_DewPointDepression_IsbL-0300_LatLon0.15_PT072H.grib2 2026-05-08 04:13 953K
20260508T00Z_MSC_GDPS_DewPointDepression_IsbL-0350_LatLon0.15_PT072H.grib2 2026-05-08 04:13 1.0M
20260508T00Z_MSC_GDPS_DewPointDepression_IsbL-0400_LatLon0.15_PT072H.grib2 2026-05-08 04:13 1.0M
20260508T00Z_MSC_GDPS_DewPointDepression_IsbL-0450_LatLon0.15_PT072H.grib2 2026-05-08 04:13 1.0M
20260508T00Z_MSC_GDPS_DewPointDepression_IsbL-0500_LatLon0.15_PT072H.grib2 2026-05-08 04:13 1.0M
20260508T00Z_MSC_GDPS_DewPointDepression_IsbL-0550_LatLon0.15_PT072H.grib2 2026-05-08 04:13 1.0M
20260508T00Z_MSC_GDPS_DewPointDepression_IsbL-0600_LatLon0.15_PT072H.grib2 2026-05-08 04:13 1.1M
20260508T00Z_MSC_GDPS_DewPointDepression_IsbL-0650_LatLon0.15_PT072H.grib2 2026-05-08 04:13 1.1M
20260508T00Z_MSC_GDPS_DewPointDepression_IsbL-0700_LatLon0.15_PT072H.grib2 2026-05-08 04:13 1.1M
20260508T00Z_MSC_GDPS_DewPointDepression_IsbL-0750_LatLon0.15_PT072H.grib2 2026-05-08 04:13 1.1M
20260508T00Z_MSC_GDPS_DewPointDepression_IsbL-0800_LatLon0.15_PT072H.grib2 2026-05-08 04:13 1.1M
20260508T00Z_MSC_GDPS_DewPointDepression_IsbL-0850_LatLon0.15_PT072H.grib2 2026-05-08 04:13 1.1M
20260508T00Z_MSC_GDPS_DewPointDepression_IsbL-0875_LatLon0.15_PT072H.grib2 2026-05-08 04:13 1.1M
20260508T00Z_MSC_GDPS_DewPointDepression_IsbL-0900_LatLon0.15_PT072H.grib2 2026-05-08 04:13 1.0M
20260508T00Z_MSC_GDPS_DewPointDepression_IsbL-0925_LatLon0.15_PT072H.grib2 2026-05-08 04:13 1.0M
20260508T00Z_MSC_GDPS_DewPointDepression_IsbL-0950_LatLon0.15_PT072H.grib2 2026-05-08 04:13 1.0M
20260508T00Z_MSC_GDPS_DewPointDepression_IsbL-0970_LatLon0.15_PT072H.grib2 2026-05-08 04:13 1.0M
20260508T00Z_MSC_GDPS_DewPointDepression_IsbL-0985_LatLon0.15_PT072H.grib2 2026-05-08 04:13 973K
20260508T00Z_MSC_GDPS_DewPointDepression_IsbL-1000_LatLon0.15_PT072H.grib2 2026-05-08 04:13 959K
20260508T00Z_MSC_GDPS_DewPointDepression_IsbL-1015_LatLon0.15_PT072H.grib2 2026-05-08 04:13 899K
20260508T00Z_MSC_GDPS_DewPoint_AGL-2m_LatLon0.15_PT072H.grib2 2026-05-08 04:13 600K
20260508T00Z_MSC_GDPS_DownwardLongwaveRadiationFlux-Accum_Sfc_LatLon0.15_PT072H.grib2 2026-05-08 04:13 910K
20260508T00Z_MSC_GDPS_DownwardShortwaveRadiationFlux-Accum_NTAtm_LatLon0.15_PT072H.grib2 2026-05-08 04:13 157K
20260508T00Z_MSC_GDPS_DownwardShortwaveRadiationFlux-Accum_Sfc_LatLon0.15_PT072H.grib2 2026-05-08 04:13 865K
20260508T00Z_MSC_GDPS_FreezingRain-Accum12h_Sfc_LatLon0.15_PT072H.grib2 2026-05-08 04:13 113K
20260508T00Z_MSC_GDPS_FreezingRain-Accum1h_Sfc_LatLon0.15_PT072H.grib2 2026-05-08 04:13 29K
20260508T00Z_MSC_GDPS_FreezingRain-Accum24h_Sfc_LatLon0.15_PT072H.grib2 2026-05-08 04:13 131K
20260508T00Z_MSC_GDPS_FreezingRain-Accum3h_Sfc_LatLon0.15_PT072H.grib2 2026-05-08 04:13 39K
20260508T00Z_MSC_GDPS_FreezingRain-Accum6h_Sfc_LatLon0.15_PT072H.grib2 2026-05-08 04:13 64K
20260508T00Z_MSC_GDPS_FreezingRain-Accum_Sfc_LatLon0.15_PT072H.grib2 2026-05-08 04:13 241K
20260508T00Z_MSC_GDPS_GeopotentialHeight_IsbL-0001_LatLon0.15_PT072H.grib2 2026-05-08 04:13 446K
20260508T00Z_MSC_GDPS_GeopotentialHeight_IsbL-0005_LatLon0.15_PT072H.grib2 2026-05-08 04:13 488K
20260508T00Z_MSC_GDPS_GeopotentialHeight_IsbL-0010_LatLon0.15_PT072H.grib2 2026-05-08 04:13 474K
20260508T00Z_MSC_GDPS_GeopotentialHeight_IsbL-0020_LatLon0.15_PT072H.grib2 2026-05-08 04:13 408K
20260508T00Z_MSC_GDPS_GeopotentialHeight_IsbL-0030_LatLon0.15_PT072H.grib2 2026-05-08 04:13 408K
20260508T00Z_MSC_GDPS_GeopotentialHeight_IsbL-0050_LatLon0.15_PT072H.grib2 2026-05-08 04:13 566K
20260508T00Z_MSC_GDPS_GeopotentialHeight_IsbL-0100_LatLon0.15_PT072H.grib2 2026-05-08 04:13 607K
20260508T00Z_MSC_GDPS_GeopotentialHeight_IsbL-0150_LatLon0.15_PT072H.grib2 2026-05-08 04:13 625K
20260508T00Z_MSC_GDPS_GeopotentialHeight_IsbL-0175_LatLon0.15_PT072H.grib2 2026-05-08 04:13 628K
20260508T00Z_MSC_GDPS_GeopotentialHeight_IsbL-0200_LatLon0.15_PT072H.grib2 2026-05-08 04:13 633K
20260508T00Z_MSC_GDPS_GeopotentialHeight_IsbL-0225_LatLon0.15_PT072H.grib2 2026-05-08 04:13 638K
20260508T00Z_MSC_GDPS_GeopotentialHeight_IsbL-0250_LatLon0.15_PT072H.grib2 2026-05-08 04:13 636K
20260508T00Z_MSC_GDPS_GeopotentialHeight_IsbL-0275_LatLon0.15_PT072H.grib2 2026-05-08 04:13 638K
20260508T00Z_MSC_GDPS_GeopotentialHeight_IsbL-0300_LatLon0.15_PT072H.grib2 2026-05-08 04:13 631K
20260508T00Z_MSC_GDPS_GeopotentialHeight_IsbL-0350_LatLon0.15_PT072H.grib2 2026-05-08 04:13 625K
20260508T00Z_MSC_GDPS_GeopotentialHeight_IsbL-0400_LatLon0.15_PT072H.grib2 2026-05-08 04:13 617K
20260508T00Z_MSC_GDPS_GeopotentialHeight_IsbL-0450_LatLon0.15_PT072H.grib2 2026-05-08 04:13 607K
20260508T00Z_MSC_GDPS_GeopotentialHeight_IsbL-0500_LatLon0.15_PT072H.grib2 2026-05-08 04:13 597K
20260508T00Z_MSC_GDPS_GeopotentialHeight_IsbL-0550_LatLon0.15_PT072H.grib2 2026-05-08 04:13 523K
20260508T00Z_MSC_GDPS_GeopotentialHeight_IsbL-0600_LatLon0.15_PT072H.grib2 2026-05-08 04:13 521K
20260508T00Z_MSC_GDPS_GeopotentialHeight_IsbL-0650_LatLon0.15_PT072H.grib2 2026-05-08 04:13 519K
20260508T00Z_MSC_GDPS_GeopotentialHeight_IsbL-0700_LatLon0.15_PT072H.grib2 2026-05-08 04:13 517K
20260508T00Z_MSC_GDPS_GeopotentialHeight_IsbL-0750_LatLon0.15_PT072H.grib2 2026-05-08 04:13 685K
20260508T00Z_MSC_GDPS_GeopotentialHeight_IsbL-0800_LatLon0.15_PT072H.grib2 2026-05-08 04:13 701K
20260508T00Z_MSC_GDPS_GeopotentialHeight_IsbL-0850_LatLon0.15_PT072H.grib2 2026-05-08 04:13 708K
20260508T00Z_MSC_GDPS_GeopotentialHeight_IsbL-0875_LatLon0.15_PT072H.grib2 2026-05-08 04:13 715K
20260508T00Z_MSC_GDPS_GeopotentialHeight_IsbL-0900_LatLon0.15_PT072H.grib2 2026-05-08 04:13 724K
20260508T00Z_MSC_GDPS_GeopotentialHeight_IsbL-0925_LatLon0.15_PT072H.grib2 2026-05-08 04:13 734K
20260508T00Z_MSC_GDPS_GeopotentialHeight_IsbL-0950_LatLon0.15_PT072H.grib2 2026-05-08 04:13 737K
20260508T00Z_MSC_GDPS_GeopotentialHeight_IsbL-0970_LatLon0.15_PT072H.grib2 2026-05-08 04:13 750K
20260508T00Z_MSC_GDPS_GeopotentialHeight_IsbL-0985_LatLon0.15_PT072H.grib2 2026-05-08 04:13 766K
20260508T00Z_MSC_GDPS_GeopotentialHeight_IsbL-1000_LatLon0.15_PT072H.grib2 2026-05-08 04:13 787K
20260508T00Z_MSC_GDPS_GeopotentialHeight_IsbL-1015_LatLon0.15_PT072H.grib2 2026-05-08 04:13 809K
20260508T00Z_MSC_GDPS_Humidex_Sfc_LatLon0.15_PT072H.grib2 2026-05-08 04:13 5.3M
20260508T00Z_MSC_GDPS_IcePellets-Accum12h_Sfc_LatLon0.15_PT072H.grib2 2026-05-08 04:13 65K
20260508T00Z_MSC_GDPS_IcePellets-Accum1h_Sfc_LatLon0.15_PT072H.grib2 2026-05-08 04:13 26K
20260508T00Z_MSC_GDPS_IcePellets-Accum24h_Sfc_LatLon0.15_PT072H.grib2 2026-05-08 04:13 81K
20260508T00Z_MSC_GDPS_IcePellets-Accum3h_Sfc_LatLon0.15_PT072H.grib2 2026-05-08 04:13 33K
20260508T00Z_MSC_GDPS_IcePellets-Accum6h_Sfc_LatLon0.15_PT072H.grib2 2026-05-08 04:13 41K
20260508T00Z_MSC_GDPS_IcePellets-Accum_Sfc_LatLon0.15_PT072H.grib2 2026-05-08 04:13 105K
20260508T00Z_MSC_GDPS_KIndex_Sfc_LatLon0.15_PT072H.grib2 2026-05-08 04:13 6.5M
20260508T00Z_MSC_GDPS_LatentHeatNetFlux_Sfc_LatLon0.15_PT072H.grib2 2026-05-08 04:13 673K
20260508T00Z_MSC_GDPS_LiftedIndex-MU-VT_IsbL-0500_LatLon0.15_PT072H.grib2 2026-05-08 04:13 5.4M
20260508T00Z_MSC_GDPS_NetLongwaveRadiationFlux-Accum_Sfc_LatLon0.15_PT072H.grib2 2026-05-08 04:13 969K
20260508T00Z_MSC_GDPS_NetShortwaveRadiationFlux-Accum_Sfc_LatLon0.15_PT072H.grib2 2026-05-08 04:13 1.1M
20260508T00Z_MSC_GDPS_O3MixingRatio_Sfc_LatLon0.15_PT072H.grib2 2026-05-08 04:49 1.9M
20260508T00Z_MSC_GDPS_O3_EAtm_LatLon0.15_PT072H.grib2 2026-05-08 04:49 2.5M
20260508T00Z_MSC_GDPS_PlanetaryBoundaryLayerHeight_Sfc_LatLon0.15_PT072H.grib2 2026-05-08 04:13 2.4M
20260508T00Z_MSC_GDPS_Precip-Accum12h_Sfc_LatLon0.15_PT072H.grib2 2026-05-08 04:13 4.1M
20260508T00Z_MSC_GDPS_Precip-Accum1h_Sfc_LatLon0.15_PT072H.grib2 2026-05-08 04:13 3.2M
20260508T00Z_MSC_GDPS_Precip-Accum24h_Sfc_LatLon0.15_PT072H.grib2 2026-05-08 04:13 4.3M
20260508T00Z_MSC_GDPS_Precip-Accum3h_Sfc_LatLon0.15_PT072H.grib2 2026-05-08 04:13 3.5M
20260508T00Z_MSC_GDPS_Precip-Accum6h_Sfc_LatLon0.15_PT072H.grib2 2026-05-08 04:13 3.6M
20260508T00Z_MSC_GDPS_Precip-Accum_Sfc_LatLon0.15_PT072H.grib2 2026-05-08 04:13 4.9M
20260508T00Z_MSC_GDPS_PrecipRate_Sfc_LatLon0.15_PT072H.grib2 2026-05-08 04:13 3.0M
20260508T00Z_MSC_GDPS_PrecipType-Instant_Sfc_LatLon0.15_PT072H.grib2 2026-05-08 04:13 1.5M
20260508T00Z_MSC_GDPS_Pressure_MSL_LatLon0.15_PT072H.grib2 2026-05-08 04:13 830K
20260508T00Z_MSC_GDPS_Pressure_PVU-1.5_LatLon0.15_PT072H.grib2 2026-05-08 04:13 5.8M
20260508T00Z_MSC_GDPS_Pressure_PVU-1_LatLon0.15_PT072H.grib2 2026-05-08 04:13 6.0M
20260508T00Z_MSC_GDPS_Pressure_PVU-2_LatLon0.15_PT072H.grib2 2026-05-08 04:13 5.6M
20260508T00Z_MSC_GDPS_Pressure_Sfc_LatLon0.15_PT072H.grib2 2026-05-08 04:13 1.1M
20260508T00Z_MSC_GDPS_RadiativeTemp_Sfc_LatLon0.15_PT072H.grib2 2026-05-08 04:13 648K
20260508T00Z_MSC_GDPS_Rain-Accum12h_Sfc_LatLon0.15_PT072H.grib2 2026-05-08 04:13 2.7M
20260508T00Z_MSC_GDPS_Rain-Accum1h_Sfc_LatLon0.15_PT072H.grib2 2026-05-08 04:13 1.7M
20260508T00Z_MSC_GDPS_Rain-Accum24h_Sfc_LatLon0.15_PT072H.grib2 2026-05-08 04:13 3.0M
20260508T00Z_MSC_GDPS_Rain-Accum3h_Sfc_LatLon0.15_PT072H.grib2 2026-05-08 04:13 1.7M
20260508T00Z_MSC_GDPS_Rain-Accum6h_Sfc_LatLon0.15_PT072H.grib2 2026-05-08 04:13 2.2M
20260508T00Z_MSC_GDPS_Rain-Accum_Sfc_LatLon0.15_PT072H.grib2 2026-05-08 04:13 3.7M
20260508T00Z_MSC_GDPS_RelativeHumidity_AGL-2m_LatLon0.15_PT072H.grib2 2026-05-08 04:13 1.1M
20260508T00Z_MSC_GDPS_RelativeHumidity_IsbL-0010_LatLon0.15_PT072H.grib2 2026-05-08 04:13 147K
20260508T00Z_MSC_GDPS_RelativeHumidity_IsbL-0020_LatLon0.15_PT072H.grib2 2026-05-08 04:13 180K
20260508T00Z_MSC_GDPS_RelativeHumidity_IsbL-0030_LatLon0.15_PT072H.grib2 2026-05-08 04:13 195K
20260508T00Z_MSC_GDPS_RelativeHumidity_IsbL-0050_LatLon0.15_PT072H.grib2 2026-05-08 04:13 345K
20260508T00Z_MSC_GDPS_RelativeHumidity_IsbL-0100_LatLon0.15_PT072H.grib2 2026-05-08 04:13 513K
20260508T00Z_MSC_GDPS_RelativeHumidity_IsbL-0150_LatLon0.15_PT072H.grib2 2026-05-08 04:13 681K
20260508T00Z_MSC_GDPS_RelativeHumidity_IsbL-0175_LatLon0.15_PT072H.grib2 2026-05-08 04:13 806K
20260508T00Z_MSC_GDPS_RelativeHumidity_IsbL-0200_LatLon0.15_PT072H.grib2 2026-05-08 04:13 716K
20260508T00Z_MSC_GDPS_RelativeHumidity_IsbL-0225_LatLon0.15_PT072H.grib2 2026-05-08 04:13 800K
20260508T00Z_MSC_GDPS_RelativeHumidity_IsbL-0250_LatLon0.15_PT072H.grib2 2026-05-08 04:13 879K
20260508T00Z_MSC_GDPS_RelativeHumidity_IsbL-0275_LatLon0.15_PT072H.grib2 2026-05-08 04:13 898K
20260508T00Z_MSC_GDPS_RelativeHumidity_IsbL-0300_LatLon0.15_PT072H.grib2 2026-05-08 04:13 938K
20260508T00Z_MSC_GDPS_RelativeHumidity_IsbL-0350_LatLon0.15_PT072H.grib2 2026-05-08 04:13 954K
20260508T00Z_MSC_GDPS_RelativeHumidity_IsbL-0400_LatLon0.15_PT072H.grib2 2026-05-08 04:13 1.0M
20260508T00Z_MSC_GDPS_RelativeHumidity_IsbL-0450_LatLon0.15_PT072H.grib2 2026-05-08 04:13 1.0M
20260508T00Z_MSC_GDPS_RelativeHumidity_IsbL-0500_LatLon0.15_PT072H.grib2 2026-05-08 04:13 1.0M
20260508T00Z_MSC_GDPS_RelativeHumidity_IsbL-0550_LatLon0.15_PT072H.grib2 2026-05-08 04:13 1.1M
20260508T00Z_MSC_GDPS_RelativeHumidity_IsbL-0600_LatLon0.15_PT072H.grib2 2026-05-08 04:13 1.1M
20260508T00Z_MSC_GDPS_RelativeHumidity_IsbL-0650_LatLon0.15_PT072H.grib2 2026-05-08 04:13 1.1M
20260508T00Z_MSC_GDPS_RelativeHumidity_IsbL-0700_LatLon0.15_PT072H.grib2 2026-05-08 04:13 1.1M
20260508T00Z_MSC_GDPS_RelativeHumidity_IsbL-0750_LatLon0.15_PT072H.grib2 2026-05-08 04:13 1.2M
20260508T00Z_MSC_GDPS_RelativeHumidity_IsbL-0800_LatLon0.15_PT072H.grib2 2026-05-08 04:13 1.2M
20260508T00Z_MSC_GDPS_RelativeHumidity_IsbL-0850_LatLon0.15_PT072H.grib2 2026-05-08 04:13 1.3M
20260508T00Z_MSC_GDPS_RelativeHumidity_IsbL-0875_LatLon0.15_PT072H.grib2 2026-05-08 04:13 1.3M
20260508T00Z_MSC_GDPS_RelativeHumidity_IsbL-0900_LatLon0.15_PT072H.grib2 2026-05-08 04:13 1.2M
20260508T00Z_MSC_GDPS_RelativeHumidity_IsbL-0925_LatLon0.15_PT072H.grib2 2026-05-08 04:13 1.2M
20260508T00Z_MSC_GDPS_RelativeHumidity_IsbL-0950_LatLon0.15_PT072H.grib2 2026-05-08 04:13 1.2M
20260508T00Z_MSC_GDPS_RelativeHumidity_IsbL-0970_LatLon0.15_PT072H.grib2 2026-05-08 04:13 1.1M
20260508T00Z_MSC_GDPS_RelativeHumidity_IsbL-0985_LatLon0.15_PT072H.grib2 2026-05-08 04:13 1.1M
20260508T00Z_MSC_GDPS_RelativeHumidity_IsbL-1000_LatLon0.15_PT072H.grib2 2026-05-08 04:13 1.1M
20260508T00Z_MSC_GDPS_RelativeHumidity_IsbL-1015_LatLon0.15_PT072H.grib2 2026-05-08 04:13 1.0M
20260508T00Z_MSC_GDPS_RelativeVorticity_IsbL-0200_LatLon0.15_PT072H.grib2 2026-05-08 04:13 1.2M
20260508T00Z_MSC_GDPS_RelativeVorticity_IsbL-0250_LatLon0.15_PT072H.grib2 2026-05-08 04:13 1.3M
20260508T00Z_MSC_GDPS_RelativeVorticity_IsbL-0500_LatLon0.15_PT072H.grib2 2026-05-08 04:13 1.5M
20260508T00Z_MSC_GDPS_RelativeVorticity_IsbL-0700_LatLon0.15_PT072H.grib2 2026-05-08 04:13 1.3M
20260508T00Z_MSC_GDPS_RelativeVorticity_IsbL-0850_LatLon0.15_PT072H.grib2 2026-05-08 04:13 1.6M
20260508T00Z_MSC_GDPS_Runoff-Accum_Sfc_LatLon0.15_PT072H.grib2 2026-05-08 04:13 109K
20260508T00Z_MSC_GDPS_SensibleHeatNetFlux_Sfc_LatLon0.15_PT072H.grib2 2026-05-08 04:13 450K
20260508T00Z_MSC_GDPS_ShowalterIndex_IsbL-0500_LatLon0.15_PT072H.grib2 2026-05-08 04:13 6.2M
20260508T00Z_MSC_GDPS_Snow-Accum12h_Sfc_LatLon0.15_PT072H.grib2 2026-05-08 04:13 1.5M
20260508T00Z_MSC_GDPS_Snow-Accum1h_Sfc_LatLon0.15_PT072H.grib2 2026-05-08 04:13 1.0M
20260508T00Z_MSC_GDPS_Snow-Accum24h_Sfc_LatLon0.15_PT072H.grib2 2026-05-08 04:13 1.6M
20260508T00Z_MSC_GDPS_Snow-Accum3h_Sfc_LatLon0.15_PT072H.grib2 2026-05-08 04:13 925K
20260508T00Z_MSC_GDPS_Snow-Accum6h_Sfc_LatLon0.15_PT072H.grib2 2026-05-08 04:13 1.3M
20260508T00Z_MSC_GDPS_Snow-Accum_Sfc_LatLon0.15_PT072H.grib2 2026-05-08 04:13 1.8M
20260508T00Z_MSC_GDPS_SnowDensity_Sfc_LatLon0.15_PT072H.grib2 2026-05-08 04:13 257K
20260508T00Z_MSC_GDPS_SnowDepth_Sfc_LatLon0.15_PT072H.grib2 2026-05-08 04:13 1.7M
20260508T00Z_MSC_GDPS_SoilTemp_DBS-0to10cm_LatLon0.15_PT072H.grib2 2026-05-08 04:13 505K
20260508T00Z_MSC_GDPS_SoilTemp_Sfc_LatLon0.15_PT072H.grib2 2026-05-08 04:13 557K
20260508T00Z_MSC_GDPS_SoilVolumetricIceContent_Sfc_LatLon0.15_PT072H.grib2 2026-05-08 04:13 176K
20260508T00Z_MSC_GDPS_SoilVolumetricWaterContent_DBS-0to10cm_LatLon0.15_PT072H.grib2 2026-05-08 04:13 600K
20260508T00Z_MSC_GDPS_SoilVolumetricWaterContent_DBS-0to1cm_LatLon0.15_PT072H.grib2 2026-05-08 04:13 648K
20260508T00Z_MSC_GDPS_SpecificHumidity_AGL-120m_LatLon0.15_PT072H.grib2 2026-05-08 04:13 1.1M
20260508T00Z_MSC_GDPS_SpecificHumidity_AGL-2m_LatLon0.15_PT072H.grib2 2026-05-08 04:13 1.2M
20260508T00Z_MSC_GDPS_SpecificHumidity_AGL-40m_LatLon0.15_PT072H.grib2 2026-05-08 04:13 1.1M
20260508T00Z_MSC_GDPS_SpecificHumidity_AGL-80m_LatLon0.15_PT072H.grib2 2026-05-08 04:13 1.1M
20260508T00Z_MSC_GDPS_SpecificHumidity_IsbL-0001_LatLon0.15_PT072H.grib2 2026-05-08 04:13 1.3M
20260508T00Z_MSC_GDPS_SpecificHumidity_IsbL-0005_LatLon0.15_PT072H.grib2 2026-05-08 04:13 1.2M
20260508T00Z_MSC_GDPS_SpecificHumidity_IsbL-0010_LatLon0.15_PT072H.grib2 2026-05-08 04:13 1.3M
20260508T00Z_MSC_GDPS_SpecificHumidity_IsbL-0020_LatLon0.15_PT072H.grib2 2026-05-08 04:13 1.3M
20260508T00Z_MSC_GDPS_SpecificHumidity_IsbL-0030_LatLon0.15_PT072H.grib2 2026-05-08 04:13 1.3M
20260508T00Z_MSC_GDPS_SpecificHumidity_IsbL-0050_LatLon0.15_PT072H.grib2 2026-05-08 04:13 1.3M
20260508T00Z_MSC_GDPS_SpecificHumidity_IsbL-0100_LatLon0.15_PT072H.grib2 2026-05-08 04:13 1.3M
20260508T00Z_MSC_GDPS_SpecificHumidity_IsbL-0150_LatLon0.15_PT072H.grib2 2026-05-08 04:13 1.3M
20260508T00Z_MSC_GDPS_SpecificHumidity_IsbL-0175_LatLon0.15_PT072H.grib2 2026-05-08 04:13 1.3M
20260508T00Z_MSC_GDPS_SpecificHumidity_IsbL-0200_LatLon0.15_PT072H.grib2 2026-05-08 04:13 1.3M
20260508T00Z_MSC_GDPS_SpecificHumidity_IsbL-0225_LatLon0.15_PT072H.grib2 2026-05-08 04:13 1.3M
20260508T00Z_MSC_GDPS_SpecificHumidity_IsbL-0250_LatLon0.15_PT072H.grib2 2026-05-08 04:13 1.2M
20260508T00Z_MSC_GDPS_SpecificHumidity_IsbL-0275_LatLon0.15_PT072H.grib2 2026-05-08 04:13 1.4M
20260508T00Z_MSC_GDPS_SpecificHumidity_IsbL-0300_LatLon0.15_PT072H.grib2 2026-05-08 04:13 1.3M
20260508T00Z_MSC_GDPS_SpecificHumidity_IsbL-0350_LatLon0.15_PT072H.grib2 2026-05-08 04:13 1.3M
20260508T00Z_MSC_GDPS_SpecificHumidity_IsbL-0400_LatLon0.15_PT072H.grib2 2026-05-08 04:13 1.5M
20260508T00Z_MSC_GDPS_SpecificHumidity_IsbL-0450_LatLon0.15_PT072H.grib2 2026-05-08 04:13 1.3M
20260508T00Z_MSC_GDPS_SpecificHumidity_IsbL-0500_LatLon0.15_PT072H.grib2 2026-05-08 04:13 1.5M
20260508T00Z_MSC_GDPS_SpecificHumidity_IsbL-0550_LatLon0.15_PT072H.grib2 2026-05-08 04:13 1.6M
20260508T00Z_MSC_GDPS_SpecificHumidity_IsbL-0600_LatLon0.15_PT072H.grib2 2026-05-08 04:13 1.5M
20260508T00Z_MSC_GDPS_SpecificHumidity_IsbL-0650_LatLon0.15_PT072H.grib2 2026-05-08 04:13 1.6M
20260508T00Z_MSC_GDPS_SpecificHumidity_IsbL-0700_LatLon0.15_PT072H.grib2 2026-05-08 04:13 1.6M
20260508T00Z_MSC_GDPS_SpecificHumidity_IsbL-0750_LatLon0.15_PT072H.grib2 2026-05-08 04:13 1.7M
20260508T00Z_MSC_GDPS_SpecificHumidity_IsbL-0800_LatLon0.15_PT072H.grib2 2026-05-08 04:13 1.9M
20260508T00Z_MSC_GDPS_SpecificHumidity_IsbL-0850_LatLon0.15_PT072H.grib2 2026-05-08 04:13 1.9M
20260508T00Z_MSC_GDPS_SpecificHumidity_IsbL-0875_LatLon0.15_PT072H.grib2 2026-05-08 04:13 1.9M
20260508T00Z_MSC_GDPS_SpecificHumidity_IsbL-0900_LatLon0.15_PT072H.grib2 2026-05-08 04:13 1.9M
20260508T00Z_MSC_GDPS_SpecificHumidity_IsbL-0925_LatLon0.15_PT072H.grib2 2026-05-08 04:13 1.6M
20260508T00Z_MSC_GDPS_SpecificHumidity_IsbL-0950_LatLon0.15_PT072H.grib2 2026-05-08 04:13 1.5M
20260508T00Z_MSC_GDPS_SpecificHumidity_IsbL-0970_LatLon0.15_PT072H.grib2 2026-05-08 04:13 1.5M
20260508T00Z_MSC_GDPS_SpecificHumidity_IsbL-0985_LatLon0.15_PT072H.grib2 2026-05-08 04:13 1.5M
20260508T00Z_MSC_GDPS_SpecificHumidity_IsbL-1000_LatLon0.15_PT072H.grib2 2026-05-08 04:13 1.5M
20260508T00Z_MSC_GDPS_SpecificHumidity_IsbL-1015_LatLon0.15_PT072H.grib2 2026-05-08 04:13 1.4M
20260508T00Z_MSC_GDPS_SpecificHumidity_Sfc_LatLon0.15_PT072H.grib2 2026-05-08 04:13 638K
20260508T00Z_MSC_GDPS_Thickness_IsbL-0850to0700_LatLon0.15_PT072H.grib2 2026-05-08 04:13 472K
20260508T00Z_MSC_GDPS_Thickness_IsbL-1000to0500_LatLon0.15_PT072H.grib2 2026-05-08 04:13 380K
20260508T00Z_MSC_GDPS_Thickness_IsbL-1000to0850_LatLon0.15_PT072H.grib2 2026-05-08 04:13 491K
20260508T00Z_MSC_GDPS_TotalCloudCover_Sfc_LatLon0.15_PT072H.grib2 2026-05-08 04:13 819K
20260508T00Z_MSC_GDPS_TotalTotalsIndex_Sfc_LatLon0.15_PT072H.grib2 2026-05-08 04:13 6.2M
20260508T00Z_MSC_GDPS_UVIndex-ClearSky_Sfc_LatLon0.15_PT072H.grib2 2026-05-08 04:49 1.0M
20260508T00Z_MSC_GDPS_UVIndex_Sfc_LatLon0.15_PT072H.grib2 2026-05-08 04:49 1.5M
20260508T00Z_MSC_GDPS_UpwardLongwaveRadiationFlux_NTAtm_LatLon0.15_PT072H.grib2 2026-05-08 04:13 839K
20260508T00Z_MSC_GDPS_VerticalVelocity_IsbL-0200_LatLon0.15_PT072H.grib2 2026-05-08 04:13 954K
20260508T00Z_MSC_GDPS_VerticalVelocity_IsbL-0250_LatLon0.15_PT072H.grib2 2026-05-08 04:13 1.1M
20260508T00Z_MSC_GDPS_VerticalVelocity_IsbL-0500_LatLon0.15_PT072H.grib2 2026-05-08 04:13 1.0M
20260508T00Z_MSC_GDPS_VerticalVelocity_IsbL-0600_LatLon0.15_PT072H.grib2 2026-05-08 04:13 1.1M
20260508T00Z_MSC_GDPS_VerticalVelocity_IsbL-0700_LatLon0.15_PT072H.grib2 2026-05-08 04:13 1.1M
20260508T00Z_MSC_GDPS_VerticalVelocity_IsbL-0850_LatLon0.15_PT072H.grib2 2026-05-08 04:13 1.3M
20260508T00Z_MSC_GDPS_WindChill_Sfc_LatLon0.15_PT072H.grib2 2026-05-08 04:13 5.3M
20260508T00Z_MSC_GDPS_WindDir_AGL-10m_LatLon0.15_PT072H.grib2 2026-05-08 04:13 1.3M
20260508T00Z_MSC_GDPS_WindDir_AGL-120m_LatLon0.15_PT072H.grib2 2026-05-08 04:13 1.3M
20260508T00Z_MSC_GDPS_WindDir_AGL-40m_LatLon0.15_PT072H.grib2 2026-05-08 04:13 1.4M
20260508T00Z_MSC_GDPS_WindDir_AGL-80m_LatLon0.15_PT072H.grib2 2026-05-08 04:13 1.3M
20260508T00Z_MSC_GDPS_WindDir_IsbL-0001_LatLon0.15_PT072H.grib2 2026-05-08 04:13 655K
20260508T00Z_MSC_GDPS_WindDir_IsbL-0005_LatLon0.15_PT072H.grib2 2026-05-08 04:13 798K
20260508T00Z_MSC_GDPS_WindDir_IsbL-0010_LatLon0.15_PT072H.grib2 2026-05-08 04:13 856K
20260508T00Z_MSC_GDPS_WindDir_IsbL-0020_LatLon0.15_PT072H.grib2 2026-05-08 04:13 947K
20260508T00Z_MSC_GDPS_WindDir_IsbL-0030_LatLon0.15_PT072H.grib2 2026-05-08 04:13 1.0M
20260508T00Z_MSC_GDPS_WindDir_IsbL-0050_LatLon0.15_PT072H.grib2 2026-05-08 04:13 960K
20260508T00Z_MSC_GDPS_WindDir_IsbL-0100_LatLon0.15_PT072H.grib2 2026-05-08 04:13 1.0M
20260508T00Z_MSC_GDPS_WindDir_IsbL-0150_LatLon0.15_PT072H.grib2 2026-05-08 04:13 1.0M
20260508T00Z_MSC_GDPS_WindDir_IsbL-0175_LatLon0.15_PT072H.grib2 2026-05-08 04:13 1.1M
20260508T00Z_MSC_GDPS_WindDir_IsbL-0200_LatLon0.15_PT072H.grib2 2026-05-08 04:13 1.1M
20260508T00Z_MSC_GDPS_WindDir_IsbL-0225_LatLon0.15_PT072H.grib2 2026-05-08 04:13 1.1M
20260508T00Z_MSC_GDPS_WindDir_IsbL-0250_LatLon0.15_PT072H.grib2 2026-05-08 04:13 1.2M
20260508T00Z_MSC_GDPS_WindDir_IsbL-0275_LatLon0.15_PT072H.grib2 2026-05-08 04:13 1.2M
20260508T00Z_MSC_GDPS_WindDir_IsbL-0300_LatLon0.15_PT072H.grib2 2026-05-08 04:13 1.2M
20260508T00Z_MSC_GDPS_WindDir_IsbL-0350_LatLon0.15_PT072H.grib2 2026-05-08 04:13 1.2M
20260508T00Z_MSC_GDPS_WindDir_IsbL-0400_LatLon0.15_PT072H.grib2 2026-05-08 04:13 1.3M
20260508T00Z_MSC_GDPS_WindDir_IsbL-0450_LatLon0.15_PT072H.grib2 2026-05-08 04:13 1.3M
20260508T00Z_MSC_GDPS_WindDir_IsbL-0500_LatLon0.15_PT072H.grib2 2026-05-08 04:13 1.4M
20260508T00Z_MSC_GDPS_WindDir_IsbL-0550_LatLon0.15_PT072H.grib2 2026-05-08 04:13 1.4M
20260508T00Z_MSC_GDPS_WindDir_IsbL-0600_LatLon0.15_PT072H.grib2 2026-05-08 04:13 1.5M
20260508T00Z_MSC_GDPS_WindDir_IsbL-0650_LatLon0.15_PT072H.grib2 2026-05-08 04:13 1.5M
20260508T00Z_MSC_GDPS_WindDir_IsbL-0700_LatLon0.15_PT072H.grib2 2026-05-08 04:13 1.6M
20260508T00Z_MSC_GDPS_WindDir_IsbL-0750_LatLon0.15_PT072H.grib2 2026-05-08 04:13 1.7M
20260508T00Z_MSC_GDPS_WindDir_IsbL-0800_LatLon0.15_PT072H.grib2 2026-05-08 04:13 1.8M
20260508T00Z_MSC_GDPS_WindDir_IsbL-0850_LatLon0.15_PT072H.grib2 2026-05-08 04:13 1.9M
20260508T00Z_MSC_GDPS_WindDir_IsbL-0875_LatLon0.15_PT072H.grib2 2026-05-08 04:13 1.9M
20260508T00Z_MSC_GDPS_WindDir_IsbL-0900_LatLon0.15_PT072H.grib2 2026-05-08 04:13 1.9M
20260508T00Z_MSC_GDPS_WindDir_IsbL-0925_LatLon0.15_PT072H.grib2 2026-05-08 04:13 1.9M
20260508T00Z_MSC_GDPS_WindDir_IsbL-0950_LatLon0.15_PT072H.grib2 2026-05-08 04:13 1.9M
20260508T00Z_MSC_GDPS_WindDir_IsbL-0970_LatLon0.15_PT072H.grib2 2026-05-08 04:13 2.0M
20260508T00Z_MSC_GDPS_WindDir_IsbL-0985_LatLon0.15_PT072H.grib2 2026-05-08 04:13 2.0M
20260508T00Z_MSC_GDPS_WindDir_IsbL-1000_LatLon0.15_PT072H.grib2 2026-05-08 04:13 2.0M
20260508T00Z_MSC_GDPS_WindDir_IsbL-1015_LatLon0.15_PT072H.grib2 2026-05-08 04:13 2.0M
20260508T00Z_MSC_GDPS_WindGust-Max_AGL-10m_LatLon0.15_PT072H.grib2 2026-05-08 04:13 2.2M
20260508T00Z_MSC_GDPS_WindGust-Min_AGL-10m_LatLon0.15_PT072H.grib2 2026-05-08 04:13 2.2M
20260508T00Z_MSC_GDPS_WindGust_AGL-10m_LatLon0.15_PT072H.grib2 2026-05-08 04:13 2.1M
20260508T00Z_MSC_GDPS_WindSpeed_AGL-10m_LatLon0.15_PT072H.grib2 2026-05-08 04:13 1.1M
20260508T00Z_MSC_GDPS_WindSpeed_AGL-120m_LatLon0.15_PT072H.grib2 2026-05-08 04:13 1.2M
20260508T00Z_MSC_GDPS_WindSpeed_AGL-40m_LatLon0.15_PT072H.grib2 2026-05-08 04:13 1.2M
20260508T00Z_MSC_GDPS_WindSpeed_AGL-80m_LatLon0.15_PT072H.grib2 2026-05-08 04:13 1.2M
20260508T00Z_MSC_GDPS_WindSpeed_IsbL-0001_LatLon0.15_PT072H.grib2 2026-05-08 04:13 650K
20260508T00Z_MSC_GDPS_WindSpeed_IsbL-0005_LatLon0.15_PT072H.grib2 2026-05-08 04:13 699K
20260508T00Z_MSC_GDPS_WindSpeed_IsbL-0010_LatLon0.15_PT072H.grib2 2026-05-08 04:13 632K
20260508T00Z_MSC_GDPS_WindSpeed_IsbL-0020_LatLon0.15_PT072H.grib2 2026-05-08 04:13 672K
20260508T00Z_MSC_GDPS_WindSpeed_IsbL-0030_LatLon0.15_PT072H.grib2 2026-05-08 04:13 683K
20260508T00Z_MSC_GDPS_WindSpeed_IsbL-0050_LatLon0.15_PT072H.grib2 2026-05-08 04:13 908K
20260508T00Z_MSC_GDPS_WindSpeed_IsbL-0100_LatLon0.15_PT072H.grib2 2026-05-08 04:13 869K
20260508T00Z_MSC_GDPS_WindSpeed_IsbL-0150_LatLon0.15_PT072H.grib2 2026-05-08 04:13 1.0M
20260508T00Z_MSC_GDPS_WindSpeed_IsbL-0175_LatLon0.15_PT072H.grib2 2026-05-08 04:13 1.0M
20260508T00Z_MSC_GDPS_WindSpeed_IsbL-0200_LatLon0.15_PT072H.grib2 2026-05-08 04:13 1.1M
20260508T00Z_MSC_GDPS_WindSpeed_IsbL-0225_LatLon0.15_PT072H.grib2 2026-05-08 04:13 867K
20260508T00Z_MSC_GDPS_WindSpeed_IsbL-0250_LatLon0.15_PT072H.grib2 2026-05-08 04:13 874K
20260508T00Z_MSC_GDPS_WindSpeed_IsbL-0275_LatLon0.15_PT072H.grib2 2026-05-08 04:13 1.1M
20260508T00Z_MSC_GDPS_WindSpeed_IsbL-0300_LatLon0.15_PT072H.grib2 2026-05-08 04:13 1.1M
20260508T00Z_MSC_GDPS_WindSpeed_IsbL-0350_LatLon0.15_PT072H.grib2 2026-05-08 04:13 1.1M
20260508T00Z_MSC_GDPS_WindSpeed_IsbL-0400_LatLon0.15_PT072H.grib2 2026-05-08 04:13 1.1M
20260508T00Z_MSC_GDPS_WindSpeed_IsbL-0450_LatLon0.15_PT072H.grib2 2026-05-08 04:13 1.1M
20260508T00Z_MSC_GDPS_WindSpeed_IsbL-0500_LatLon0.15_PT072H.grib2 2026-05-08 04:13 1.1M
20260508T00Z_MSC_GDPS_WindSpeed_IsbL-0550_LatLon0.15_PT072H.grib2 2026-05-08 04:13 1.1M
20260508T00Z_MSC_GDPS_WindSpeed_IsbL-0600_LatLon0.15_PT072H.grib2 2026-05-08 04:13 1.1M
20260508T00Z_MSC_GDPS_WindSpeed_IsbL-0650_LatLon0.15_PT072H.grib2 2026-05-08 04:13 1.4M
20260508T00Z_MSC_GDPS_WindSpeed_IsbL-0700_LatLon0.15_PT072H.grib2 2026-05-08 04:13 1.5M
20260508T00Z_MSC_GDPS_WindSpeed_IsbL-0750_LatLon0.15_PT072H.grib2 2026-05-08 04:13 1.7M
20260508T00Z_MSC_GDPS_WindSpeed_IsbL-0800_LatLon0.15_PT072H.grib2 2026-05-08 04:13 1.7M
20260508T00Z_MSC_GDPS_WindSpeed_IsbL-0850_LatLon0.15_PT072H.grib2 2026-05-08 04:13 1.8M
20260508T00Z_MSC_GDPS_WindSpeed_IsbL-0875_LatLon0.15_PT072H.grib2 2026-05-08 04:13 1.8M
20260508T00Z_MSC_GDPS_WindSpeed_IsbL-0900_LatLon0.15_PT072H.grib2 2026-05-08 04:13 1.8M
20260508T00Z_MSC_GDPS_WindSpeed_IsbL-0925_LatLon0.15_PT072H.grib2 2026-05-08 04:13 1.8M
20260508T00Z_MSC_GDPS_WindSpeed_IsbL-0950_LatLon0.15_PT072H.grib2 2026-05-08 04:13 1.9M
20260508T00Z_MSC_GDPS_WindSpeed_IsbL-0970_LatLon0.15_PT072H.grib2 2026-05-08 04:13 1.9M
20260508T00Z_MSC_GDPS_WindSpeed_IsbL-0985_LatLon0.15_PT072H.grib2 2026-05-08 04:13 1.8M
20260508T00Z_MSC_GDPS_WindSpeed_IsbL-1000_LatLon0.15_PT072H.grib2 2026-05-08 04:13 1.8M
20260508T00Z_MSC_GDPS_WindSpeed_IsbL-1015_LatLon0.15_PT072H.grib2 2026-05-08 04:13 1.8M
20260508T00Z_MSC_GDPS_WindU_AGL-10m_LatLon0.15_PT072H.grib2 2026-05-08 04:13 1.3M
20260508T00Z_MSC_GDPS_WindU_AGL-120m_LatLon0.15_PT072H.grib2 2026-05-08 04:13 971K
20260508T00Z_MSC_GDPS_WindU_AGL-40m_LatLon0.15_PT072H.grib2 2026-05-08 04:13 964K
20260508T00Z_MSC_GDPS_WindU_AGL-80m_LatLon0.15_PT072H.grib2 2026-05-08 04:13 970K
20260508T00Z_MSC_GDPS_WindU_IsbL-0001_LatLon0.15_PT072H.grib2 2026-05-08 04:13 510K
20260508T00Z_MSC_GDPS_WindU_IsbL-0005_LatLon0.15_PT072H.grib2 2026-05-08 04:13 699K
20260508T00Z_MSC_GDPS_WindU_IsbL-0010_LatLon0.15_PT072H.grib2 2026-05-08 04:13 708K
20260508T00Z_MSC_GDPS_WindU_IsbL-0020_LatLon0.15_PT072H.grib2 2026-05-08 04:13 739K
20260508T00Z_MSC_GDPS_WindU_IsbL-0030_LatLon0.15_PT072H.grib2 2026-05-08 04:13 751K
20260508T00Z_MSC_GDPS_WindU_IsbL-0050_LatLon0.15_PT072H.grib2 2026-05-08 04:13 771K
20260508T00Z_MSC_GDPS_WindU_IsbL-0100_LatLon0.15_PT072H.grib2 2026-05-08 04:13 927K
20260508T00Z_MSC_GDPS_WindU_IsbL-0150_LatLon0.15_PT072H.grib2 2026-05-08 04:13 1.0M
20260508T00Z_MSC_GDPS_WindU_IsbL-0175_LatLon0.15_PT072H.grib2 2026-05-08 04:13 1.0M
20260508T00Z_MSC_GDPS_WindU_IsbL-0200_LatLon0.15_PT072H.grib2 2026-05-08 04:13 844K
20260508T00Z_MSC_GDPS_WindU_IsbL-0225_LatLon0.15_PT072H.grib2 2026-05-08 04:13 913K
20260508T00Z_MSC_GDPS_WindU_IsbL-0250_LatLon0.15_PT072H.grib2 2026-05-08 04:13 916K
20260508T00Z_MSC_GDPS_WindU_IsbL-0275_LatLon0.15_PT072H.grib2 2026-05-08 04:13 941K
20260508T00Z_MSC_GDPS_WindU_IsbL-0300_LatLon0.15_PT072H.grib2 2026-05-08 04:13 873K
20260508T00Z_MSC_GDPS_WindU_IsbL-0350_LatLon0.15_PT072H.grib2 2026-05-08 04:13 888K
20260508T00Z_MSC_GDPS_WindU_IsbL-0400_LatLon0.15_PT072H.grib2 2026-05-08 04:13 892K
20260508T00Z_MSC_GDPS_WindU_IsbL-0450_LatLon0.15_PT072H.grib2 2026-05-08 04:13 1.1M
20260508T00Z_MSC_GDPS_WindU_IsbL-0500_LatLon0.15_PT072H.grib2 2026-05-08 04:13 1.1M
20260508T00Z_MSC_GDPS_WindU_IsbL-0550_LatLon0.15_PT072H.grib2 2026-05-08 04:13 1.1M
20260508T00Z_MSC_GDPS_WindU_IsbL-0600_LatLon0.15_PT072H.grib2 2026-05-08 04:13 1.2M
20260508T00Z_MSC_GDPS_WindU_IsbL-0650_LatLon0.15_PT072H.grib2 2026-05-08 04:13 1.2M
20260508T00Z_MSC_GDPS_WindU_IsbL-0700_LatLon0.15_PT072H.grib2 2026-05-08 04:13 1.2M
20260508T00Z_MSC_GDPS_WindU_IsbL-0750_LatLon0.15_PT072H.grib2 2026-05-08 04:13 1.3M
20260508T00Z_MSC_GDPS_WindU_IsbL-0800_LatLon0.15_PT072H.grib2 2026-05-08 04:13 1.3M
20260508T00Z_MSC_GDPS_WindU_IsbL-0850_LatLon0.15_PT072H.grib2 2026-05-08 04:13 1.4M
20260508T00Z_MSC_GDPS_WindU_IsbL-0875_LatLon0.15_PT072H.grib2 2026-05-08 04:13 1.4M
20260508T00Z_MSC_GDPS_WindU_IsbL-0900_LatLon0.15_PT072H.grib2 2026-05-08 04:13 1.5M
20260508T00Z_MSC_GDPS_WindU_IsbL-0925_LatLon0.15_PT072H.grib2 2026-05-08 04:13 1.4M
20260508T00Z_MSC_GDPS_WindU_IsbL-0950_LatLon0.15_PT072H.grib2 2026-05-08 04:13 1.4M
20260508T00Z_MSC_GDPS_WindU_IsbL-0970_LatLon0.15_PT072H.grib2 2026-05-08 04:13 1.4M
20260508T00Z_MSC_GDPS_WindU_IsbL-0985_LatLon0.15_PT072H.grib2 2026-05-08 04:13 1.4M
20260508T00Z_MSC_GDPS_WindU_IsbL-1000_LatLon0.15_PT072H.grib2 2026-05-08 04:13 1.4M
20260508T00Z_MSC_GDPS_WindU_IsbL-1015_LatLon0.15_PT072H.grib2 2026-05-08 04:13 1.3M
20260508T00Z_MSC_GDPS_WindV_AGL-10m_LatLon0.15_PT072H.grib2 2026-05-08 04:13 1.3M
20260508T00Z_MSC_GDPS_WindV_AGL-120m_LatLon0.15_PT072H.grib2 2026-05-08 04:13 972K
20260508T00Z_MSC_GDPS_WindV_AGL-40m_LatLon0.15_PT072H.grib2 2026-05-08 04:13 965K
20260508T00Z_MSC_GDPS_WindV_AGL-80m_LatLon0.15_PT072H.grib2 2026-05-08 04:13 972K
20260508T00Z_MSC_GDPS_WindV_IsbL-0001_LatLon0.15_PT072H.grib2 2026-05-08 04:13 724K
20260508T00Z_MSC_GDPS_WindV_IsbL-0005_LatLon0.15_PT072H.grib2 2026-05-08 04:13 866K
20260508T00Z_MSC_GDPS_WindV_IsbL-0010_LatLon0.15_PT072H.grib2 2026-05-08 04:13 815K
20260508T00Z_MSC_GDPS_WindV_IsbL-0020_LatLon0.15_PT072H.grib2 2026-05-08 04:13 859K
20260508T00Z_MSC_GDPS_WindV_IsbL-0030_LatLon0.15_PT072H.grib2 2026-05-08 04:13 871K
20260508T00Z_MSC_GDPS_WindV_IsbL-0050_LatLon0.15_PT072H.grib2 2026-05-08 04:13 906K
20260508T00Z_MSC_GDPS_WindV_IsbL-0100_LatLon0.15_PT072H.grib2 2026-05-08 04:13 859K
20260508T00Z_MSC_GDPS_WindV_IsbL-0150_LatLon0.15_PT072H.grib2 2026-05-08 04:13 1.0M
20260508T00Z_MSC_GDPS_WindV_IsbL-0175_LatLon0.15_PT072H.grib2 2026-05-08 04:13 1.0M
20260508T00Z_MSC_GDPS_WindV_IsbL-0200_LatLon0.15_PT072H.grib2 2026-05-08 04:13 841K
20260508T00Z_MSC_GDPS_WindV_IsbL-0225_LatLon0.15_PT072H.grib2 2026-05-08 04:13 851K
20260508T00Z_MSC_GDPS_WindV_IsbL-0250_LatLon0.15_PT072H.grib2 2026-05-08 04:13 911K
20260508T00Z_MSC_GDPS_WindV_IsbL-0275_LatLon0.15_PT072H.grib2 2026-05-08 04:13 934K
20260508T00Z_MSC_GDPS_WindV_IsbL-0300_LatLon0.15_PT072H.grib2 2026-05-08 04:13 924K
20260508T00Z_MSC_GDPS_WindV_IsbL-0350_LatLon0.15_PT072H.grib2 2026-05-08 04:13 936K
20260508T00Z_MSC_GDPS_WindV_IsbL-0400_LatLon0.15_PT072H.grib2 2026-05-08 04:13 884K
20260508T00Z_MSC_GDPS_WindV_IsbL-0450_LatLon0.15_PT072H.grib2 2026-05-08 04:13 886K
20260508T00Z_MSC_GDPS_WindV_IsbL-0500_LatLon0.15_PT072H.grib2 2026-05-08 04:13 1.1M
20260508T00Z_MSC_GDPS_WindV_IsbL-0550_LatLon0.15_PT072H.grib2 2026-05-08 04:13 1.1M
20260508T00Z_MSC_GDPS_WindV_IsbL-0600_LatLon0.15_PT072H.grib2 2026-05-08 04:13 1.1M
20260508T00Z_MSC_GDPS_WindV_IsbL-0650_LatLon0.15_PT072H.grib2 2026-05-08 04:13 1.2M
20260508T00Z_MSC_GDPS_WindV_IsbL-0700_LatLon0.15_PT072H.grib2 2026-05-08 04:13 1.2M
20260508T00Z_MSC_GDPS_WindV_IsbL-0750_LatLon0.15_PT072H.grib2 2026-05-08 04:13 1.3M
20260508T00Z_MSC_GDPS_WindV_IsbL-0800_LatLon0.15_PT072H.grib2 2026-05-08 04:13 1.3M
20260508T00Z_MSC_GDPS_WindV_IsbL-0850_LatLon0.15_PT072H.grib2 2026-05-08 04:13 1.4M
20260508T00Z_MSC_GDPS_WindV_IsbL-0875_LatLon0.15_PT072H.grib2 2026-05-08 04:13 1.4M
20260508T00Z_MSC_GDPS_WindV_IsbL-0900_LatLon0.15_PT072H.grib2 2026-05-08 04:13 1.4M
20260508T00Z_MSC_GDPS_WindV_IsbL-0925_LatLon0.15_PT072H.grib2 2026-05-08 04:13 1.4M
20260508T00Z_MSC_GDPS_WindV_IsbL-0950_LatLon0.15_PT072H.grib2 2026-05-08 04:13 1.4M
20260508T00Z_MSC_GDPS_WindV_IsbL-0970_LatLon0.15_PT072H.grib2 2026-05-08 04:13 1.4M
20260508T00Z_MSC_GDPS_WindV_IsbL-0985_LatLon0.15_PT072H.grib2 2026-05-08 04:13 1.4M
20260508T00Z_MSC_GDPS_WindV_IsbL-1000_LatLon0.15_PT072H.grib2 2026-05-08 04:13 1.4M
20260508T00Z_MSC_GDPS_WindV_IsbL-1015_LatLon0.15_PT072H.grib2 2026-05-08 04:13 1.3M